Weather Roundup
Issued by NWS

Home | Current Version | Previous Version | Text Only | Print | Product List | Glossary On
Versions: 1 2 3 4 5 6 7 8 9 10 11 12 13 14 15 16 17 18 19 20 21 22 23 24 25 26 27 28 29 30 31 32 33 34 35 36 37 38 39 40 41 42 43 44 45 46 47 48 49 50
000
NZUS93 KARX 020359
HRRWXR

CURRENT HOURLY OBSERVATIONS ACROSS
MUCH OF THE UPPER MISSISSIPPI VALLEY
NATIONAL WEATHER SERVICE LA CROSSE WI
1000 PM CST SUN MAR 01 2015


...SOUTHEAST MINNESOTA...


CITY           SKY/WX    TMP DP  RH WIND       PRES   REMARKS
ROCHESTER      CLEAR     17  11  77 W16       30.30R WCI   2
ROCHESTER/MAYO FAIR      22  13  70 W16       30.31R WCI   8
WINONA         CLEAR     25  16  68 W10G18    30.33R WCI  15
AUSTIN         CLEAR     21  14  73 W10       30.33R WCI  10
ALBERT LEA     CLEAR     19  16  86 W7        30.35R WCI  10
DODGE CENTER   PTCLDY    21  16  79 NW15      30.31R WCI   8
PRESTON        CLEAR     16  10  77 W10       30.31R WCI   3
OWATONNA       CLEAR     21  14  73 W12G18    30.34R WCI   9
FARIBAULT      CLEAR     21  16  79 W12       30.34R WCI   9
$$

...ELSEWHERE IN MINNESOTA...


CITY           SKY/WX    TMP DP  RH WIND       PRES   REMARKS
MINNEAPOLIS    CLOUDY    22  11  62 W20G28    30.33R WCI   7
INTNL FALLS    PTCLDY     9   2  73 W8        30.22R WCI  -3
DULUTH         MOCLDY    16   6  65 W14G22    30.21R WCI   2
RED WING       MOCLDY    21  12  68 W7        30.31R WCI  13
REDWOOD FALLS  CLEAR     18  12  77 NW12      30.40R WCI   5
MANKATO        CLEAR     21  12  68 NW16G24   30.37R WCI   7
FAIRMONT       CLEAR     21  12  68 NW14      30.37R WCI   8
$$

...SOUTHWEST WISCONSIN...


CITY           SKY/WX    TMP DP  RH WIND       PRES   REMARKS
LA CROSSE      CLEAR     18   8  65 S6        30.32R WCI  10
PRAIRIE DU CHI CLEAR     18   8  63 N3        30.35S
BOSCOBEL       CLEAR     15   7  70 SW3       30.35R
LONE ROCK      NOT AVBL
PLATTEVILLE    CLEAR     15   8  73 SW5       30.32S WCI   8
FORT MC COY    CLEAR     17   8  66 W6        30.30S WCI   9
VIROQUA        FAIR      14   8  76 SW8       30.27R WCI   3
WIS DELLS      NOT AVBL
$$

...ELSEWHERE IN WISCONSIN...


CITY           SKY/WX    TMP DP  RH WIND       PRES   REMARKS
MILWAUKEE      CLEAR     23   9  55 W15G25    30.28R WCI  10
MADISON        CLEAR     18   6  59 VRB3      30.30R
GREEN BAY      CLEAR     19   9  65 W9        30.23R WCI   8
EAU CLAIRE     PTCLDY    15   6  67 SW7       30.28R WCI   5
BLACK RVR FLS  CLOUDY    18   8  63 SW5       30.29R WCI  11
MEDFORD        CLOUDY    17   7  65 W10       30.19R WCI   4
WAUSAU         PTCLDY    16   6  65 NW8       30.20R WCI   5
WIS RAPIDS     PTCLDY    16   5  62 W6        30.26R WCI   7
MARSHFIELD     MOCLDY    15   6  67 W7        30.23R WCI   5
RICE LAKE      CLEAR     20  10  63 W8        30.26R WCI  11
$$

...NORTHEAST IOWA...


CITY           SKY/WX    TMP DP  RH WIND       PRES   REMARKS
DECORAH        CLEAR     16   9  73 VRB5      30.31R WCI   9
MASON CITY     CLEAR     15   8  73 W9        30.38R WCI   3
CHARLES CITY   CLEAR     18  10  73 W9        30.35R WCI   6
OELWEIN        PTCLDY    14   9  79 W9        30.35R WCI   2
$$

...ELSEWHERE IN IOWA...


CITY           SKY/WX    TMP DP  RH WIND       PRES   REMARKS
DES MOINES     PTCLDY    24  14  65 SW6       30.43R WCI  17
IOWA CITY      MOCLDY     8   5  87 W3        30.43R
FORT DODGE     CLEAR     19  12  73 CALM      30.41R
$$

...NORTHERN ILLINOIS...


CITY           SKY/WX    TMP DP  RH WIND       PRES   REMARKS
CHICAGO-OHARE  CLEAR     19  13  77 W13       30.32R WCI   6
CHICAGO-MIDWAY CLEAR     22  15  75 W14       30.34R WCI   9
MOLINE         PTCLDY    15   7  70 W5        30.41R WCI   8
ROCKFORD       CLEAR     18   8  65 W9        30.37R WCI   7
PEORIA         MOCLDY    22  15  75 W7        30.44R WCI  13
$$

NOTE: "FAIR" INDICATES FEW OR NO CLOUDS BELOW 12,000 FEET WITH NO
SIGNIFICANT WEATHER AND/OR OBSTRUCTIONS TO VISIBILITY. WIND
SPEEDS ARE IN MILES-PER-HOUR.



USA.gov is the U.S. government's official web portal to all federal, state and local government web resources and services.